This demonstration page uses our WeatherBlox Daily Observations layout. Learn more.

Left ArrowRight Arrow

Hourly Observations for September 29, 2022

Temp ( °F °C ) Dew Point ( °F °C ) Humidity (%) Winds ( mph kmh ) Pressure ( in mb ) Visibility ( mi km ) Precip ( " mm )
12:53 am 00:53 Clear 66 18.9 40 4.4 38 38 S 6 9 30.16 1021 10 16 0.00 0.00
1:53 am 01:53 Clear 63 17.2 41 5 44 44 SSE 8 13 30.16 1021 10 16 0.00 0.00
2:53 am 02:53 Clear 61 16.1 41 5 48 48 SSE 6 9 30.16 1021 10 16 0.00 0.00
3:53 am 03:53 Clear 61 16.1 41 5 48 48 SE 5 7 30.15 1021 10 16 0.00 0.00
4:53 am 04:53 Clear 55 12.8 42 5.6 62 62 NE 3 6 30.15 1021 10 16 0.00 0.00
5:53 am 05:53 Clear 54 12.2 41 5 61 61 N 6 9 30.16 1021 10 16 0.00 0.00
6:53 am 06:53 Clear 53 11.7 41 5 63 63 NE 5 7 30.17 1022 10 16 0.00 0.00
7:53 am 07:53 Sunny 53 11.7 41 5 63 63 Calm 30.18 1022 10 16 0.00 0.00
8:53 am 08:53 Sunny 60 15.6 44 6.7 55 55 Calm 30.18 1022 10 16 0.00 0.00
9:53 am 09:53 Sunny with Light Rain 68 20 45 7.2 43 43 SSE 5 7 30.18 1022 10 16 0.01 0.13
10:53 am 10:53 Sunny 74 23.3 45 7.2 36 36 S 5 7 30.17 1022 10 16 0.01 0.13
11:53 am 11:53 Sunny 78 25.6 45 7.2 31 31 S 9 15 30.16 1021 10 16 0.00 0.00
12:53 pm 12:53 Sunny 81 27.2 43 6.1 26 26 S 13 20 30.13 1020 10 16 0.00 0.00
1:53 pm 13:53 Sunny 83 28.3 43 6.1 24 24 S 8 13 30.10 1019 10 16 0.00 0.00
2:53 pm 14:53 Sunny 87 30.6 43 6.1 21 21 S 16 26 30.06 1018 10 16 0.00 0.00
3:53 pm 15:53 Sunny 86 30 42 5.6 21 21 SE 16 26 30.02 1017 10 16 0.00 0.00
4:53 pm 16:53 Sunny 86 30 40 4.4 20 20 SSE 10 17 30.02 1017 10 16 0.00 0.00
5:53 pm 17:53 Sunny 86 30 40 4.4 20 20 SSE 17 28 30.00 1016 10 16 0.00 0.00
6:53 pm 18:53 Sunny 83 28.3 41 5 23 23 undefined N/A 30.00 1016 10 16 0.00 0.00
7:53 pm 19:53 Clear 80 26.7 40 4.4 24 24 SSE 10 17 30.01 1016 10 16 0.00 0.00
8:53 pm 20:53 Clear 76 24.4 41 5 29 29 SSE 10 17 30.02 1017 10 16 0.00 0.00
9:53 pm 21:53 Clear 74 23.3 42 5.6 32 32 SSE 12 19 30.03 1017 10 16 0.00 0.00
10:53 pm 22:53 Clear 71 21.7 43 6.1 36 36 SSE 9 15 30.03 1017 10 16 0.00 0.00
11:53 pm 23:53 Clear 71 21.7 43 6.1 36 36 SSE 12 19 30.02 1017 10 16 0.00 0.00

Powered by AerisWeather